COMPLETED DISPATCHED CALLS FOR SERVICE

Welcome to the Jacksonville Sheriff’s Office Completed Dispatched Calls for Service webpage. This page displays calls for service made to the Jacksonville Sheriff's Office that have recently been completed. The data on this page is refreshed automatically.

This information is not intended to be used as official crime data. This program does not provide information about all crimes, and excludes specific incidents such as sexual assaults and child abuse.

Disclaimer: The Jacksonville Sheriff's Office makes every effort to produce and publish current and accurate information. No warranties, expressed or implied, are provided for the data herein, its use, or its interpretation. The services provided are for informational purposes only and should not be relied on for any type of legal action.

Last refreshed 4/19 05:23:35

Incident # Dispatched Block Address Signal Call Description  
150419260095 4-19 04:59 3200 S UNIVERSITY BLVD 76 ASSIST OTHER AGENCY
150419260073 4-19 04:52 4300 WINDERGATE DR 2 63 DISPUTE INVOLVING ALCOHOL
150419260090 4-19 04:50 MERRILL RD AND UNIVERSITY BLVD 96 ASSIST MOTORIST
150419260088 4-19 04:45 5000 PHILLIPS HWY 13 SUSPICIOUS PERSON
150419260087 4-19 04:45 10600 DEERWOOD PARK BLVD 64 NOISE COMPLAINT
150419260086 4-19 04:41 900 DUNN AVE 32 BURGLAR ALARM - AUDIBLE
150419260084 4-19 04:39 7200 MERRILL RD 63 DISPUTE
150419260081 4-19 04:38 1000 AIRPORT RD 2 63 DISPUTE INVOLVING ALCOHOL
150419260076 4-19 04:30 7100 SANS SOUCI RD 20 PROWLER/PEEPING TOM
150419260059 4-19 04:23 8000 103RD ST 64 NOISE COMPLAINT
150419260072 4-19 04:23 S I95 EXPWY AND W EDGEWOOD AVE 16 ROAD OBSTRUCTION
150419260069 4-19 04:23 6200 MERRILL RD 13 SUSPICIOUS PERSON
150419260047 4-19 04:22 8400 DANDY AVE 63 DISPUTE
150419260071 4-19 04:18 8000 S OLD KINGS RD 2 63 DISPUTE INVOLVING ALCOHOL
150419260063 4-19 04:14 9500 ARLINGTON EXPWY 63 DISPUTE
150419260060 4-19 04:13 7800 S KNOLL DR 13 SUSPICIOUS PERSON
150419260066 4-19 04:12 6500 BOWDEN RD 32 BURGLAR ALARM - AUDIBLE
150419260064 4-19 04:11 600 TALLEYRAND AVE 32 BURGLAR ALARM - AUDIBLE
150419260061 4-19 04:05 4000 OLDFIELD CROSSING DR 8FP MISSING PERSON FOUL
150419260039 4-19 04:00 4300 SUNBEAM RD 64 NOISE COMPLAINT
150419260056 4-19 03:59 WHITE ALDER DR AND W JADE DR 13 SUSPICIOUS PERSON
150419260058 4-19 03:58 900 N LIBERTY ST 63 DISPUTE
150419260045 4-19 03:53 3400 TOWNSEND BLVD 96 ASSIST MOTORIST
150419260055 4-19 03:51 5800 MERRILL RD 50 FOUND/ABANDONED PROPERTY
150419260051 4-19 03:51 300 W ASHLEY ST 63 DISPUTE
150419260049 4-19 03:48 3800 N LEE ST 2288 DOMESTIC DISPUTE WITH/ASSAULT
150419260048 4-19 03:47 PHOENIX AVE AND E 18TH ST 63 DISPUTE
150419260038 4-19 03:45 CAHOON RD AND E I10 EXPWY 12 RECKLESS DRIVER
150419260036 4-19 03:44 5800 SAN JUAN AVE 13 SUSPICIOUS PERSON
150419260042 4-19 03:42 4300 SOUTHSIDE BLVD 63 DISPUTE
150419260034 4-19 03:34 8400 E MIZNER CIR 32 BURGLAR ALARM - AUDIBLE
150419260010 4-19 03:34 4400 CONFEDERATE POINT RD 6388 DISPUTE WITH ASSAULT
150419260041 4-19 03:34 8000 S OLD KINGS RD 63 DISPUTE
150419260040 4-19 03:33 EDGEWOOD/COLBY 13 SUSPICIOUS PERSON
150419260012 4-19 03:31 3300 DILLON ST 28 DELIVER MESSAGE
150419260035 4-19 03:30 11000 COLDFIELD DR 37 UNVERIFIED 911 CALL
150419259961 4-19 03:27 6400 ARGYLE FOREST BLVD 13 SUSPICIOUS PERSON
150419260005 4-19 03:25 11900 BEACH BLVD 2 63 DISPUTE INVOLVING ALCOHOL
150419260033 4-19 03:24 1300 FLORIDA AVE 6388 DISPUTE WITH ASSAULT
150419260030 4-19 03:24 5700 ARLINGTON RD 32 BURGLAR ALARM - AUDIBLE
150419260027 4-19 03:16 8000 ATLANTIC BLVD 14RJ VANDALISM RESIDENCE JUST OCCURRED
150419260026 4-19 03:15 PHILLIPS HWY AND S BELAIR RD 1050 TRAFFIC STOP
150419260025 4-19 03:14 E I10 EXPWY AND STOCKTON ST 1050 TRAFFIC STOP
150419260022 4-19 03:11 N I295 EXPWY AND ROOSEVELT BLVD 12 RECKLESS DRIVER
150419260018 4-19 03:10 9000 PHILLIPS HWY 32 BURGLAR ALARM - AUDIBLE
150419260002 4-19 03:09 3500 UNIVERSITY BLVD 32 BURGLAR ALARM - AUDIBLE
150419260021 4-19 03:09 3600 BEACH BLVD 32 BURGLAR ALARM - AUDIBLE
150419259992 4-19 03:09 5500 N UNIVERSITY CLUB BLVD 64 NOISE COMPLAINT
150419260019 4-19 03:09 3300 N LIBERTY ST 32 BURGLAR ALARM - AUDIBLE
150419260007 4-19 03:07 1500 PRUDENTIAL DR 63 DISPUTE
150419260017 4-19 03:06 11000 NURSERYFIELDS DR 0 61 FIGHT W/WEAPON
150419260015 4-19 03:05 2100 MAYPORT RD 63 DISPUTE
150419260014 4-19 03:04 100 TROUT RIVER DR 63 DISPUTE
150419259984 4-19 03:04 8700 BAYMEADOWS RD 64 NOISE COMPLAINT
150419260003 4-19 02:59 3300 POST ST 64 NOISE COMPLAINT
150419259993 4-19 02:58 7800 EATON AVE 28 DELIVER MESSAGE
150419260004 4-19 02:56 3600 PHILLIPS HWY 32 BURGLAR ALARM - AUDIBLE
150419260000 4-19 02:50 7200 NORMANDY BLVD 32 BURGLAR ALARM - AUDIBLE
150419259981 4-19 02:49 4200 PHILLIPS HWY 10 AUTO THEFT
150419259991 4-19 02:46 10000 SKINNER LAKE DR 63 DISPUTE
150419259999 4-19 02:45 BLANDING BLVD AND COLLINS RD 12 RECKLESS DRIVER
150419259998 4-19 02:44 2800 FITZGERALD ST 0 63 ARMED DISPUTE
150419259959 4-19 02:43 1800 W EDGEWOOD AVE 32 BURGLAR ALARM - AUDIBLE
150419259995 4-19 02:41 500 ACME ST 1050 TRAFFIC STOP
150419259979 4-19 02:40 4300 PUTNAM AVE 63 DISPUTE
150419259994 4-19 02:40 PARENTAL/BEACH 1050 TRAFFIC STOP
150419259989 4-19 02:37 2300 MAYPORT RD 76 ASSIST OTHER AGENCY
150419259933 4-19 02:36 4300 CONFEDERATE POINT RD 64 NOISE COMPLAINT
150419259988 4-19 02:36 JUSTINA RD AND MERRILL RD 88 ASSAULT
150419259987 4-19 02:35 4000 SOUTHSIDE BLVD 1050 TRAFFIC STOP
150419259986 4-19 02:34 N BOWLAN ST AND KONA AVE 13 SUSPICIOUS PERSON
150419259926 4-19 02:33 9200 12TH AVE 6388 DISPUTE WITH ASSAULT
150419259969 4-19 02:33 6300 BARTHOLF AVE 14CJ VANDALISM CONVEYANCE JUST OCCURRED
150419259963 4-19 02:30 7600 BLANDING BLVD 13 SUSPICIOUS PERSON
150419259972 4-19 02:29 8700 DANDY AVE 63 DISPUTE
150419259982 4-19 02:28 600 N OCEAN ST 57 PERSON CALLING FOR HELP
150419259903 4-19 02:28 5000 CLEVELAND RD 63 DISPUTE
150419259983 4-19 02:28 GRACE LN AND S LANE AVE 1050 TRAFFIC STOP
150419259968 4-19 02:26 9700 TOUCHTON RD 3 HIT AND RUN CRASH
150419259975 4-19 02:25 8000 S OLD KINGS RD 37 UNVERIFIED 911 CALL
150419259971 4-19 02:25 1000 GOLFAIR BLVD 32 BURGLAR ALARM - AUDIBLE
150419259976 4-19 02:23 8500 DIE HARD LN 2 63 DISPUTE INVOLVING ALCOHOL
150419259978 4-19 02:22 100 N DAMES POINT BRG 96 ASSIST MOTORIST
150419259977 4-19 02:22 1700 ATLANTIC BLVD 1050 TRAFFIC STOP
150419259974 4-19 02:22 ROSSELLE ST AND STOCKTON ST 1050 TRAFFIC STOP
150419259964 4-19 02:21 15300 MAX LEGGETT PKWY 32 BURGLAR ALARM - AUDIBLE
150419259967 4-19 02:21 S I295 EXPWY AND BEACH BLVD 4 AUTO CRASH
150419259970 4-19 02:20 900 ALDERSIDE ST 22 DOMESTIC DISTURBANCE
150419259966 4-19 02:18 J TURNER BUTLER BLVD AND S I295 EXPWY 4 AUTO CRASH
150419259965 4-19 02:15 SOUTHSIDE CONNECTOR BLVD AND S I295 EXPWY 1050 TRAFFIC STOP
150419259927 4-19 02:14 6300 CLARET DR 1066 CANCEL
150419259962 4-19 02:13 S LANE AVE AND LENOX AVE 1050 TRAFFIC STOP
150419259958 4-19 02:12 10900 SAN JOSE BLVD 32 BURGLAR ALARM - AUDIBLE
150419259939 4-19 02:10 DUVAL RD AND AIRPORT RD 11 ABANDONED VEHICLE
150419259956 4-19 02:09 4300 PHILLIPS HWY 63 DISPUTE
150419259957 4-19 02:08 900 KING ST 23I88 ROBBERY INDIVIDUAL W/ASSAULT
150419259945 4-19 02:08 8600 BLANDING BLVD 2 63 DISPUTE INVOLVING ALCOHOL
150419259952 4-19 02:08 2100 W AZTEC DR 6388 DISPUTE WITH ASSAULT
150419259924 4-19 02:07 4400 CONFEDERATE POINT RD 1066 CANCEL
150419259953 4-19 02:06 ARLINGTON EXPWY AND N ARLINGTON RD 16 ROAD OBSTRUCTION
150419259954 4-19 02:05 NELSON ST AND RAYFORD ST 1050 TRAFFIC STOP
150419259940 4-19 02:05 5600 BOWDEN RD 63 DISPUTE
150419259950 4-19 02:04 4300 DEMEDICI AVE 60 SUICIDE OR ATTEMPT
150419259951 4-19 02:03 1000 ASSISI LN 64 NOISE COMPLAINT
150419259948 4-19 02:03 ARGYLE FOREST BLVD AND RAMPART RD 1050 TRAFFIC STOP
150419259942 4-19 02:02 S I95 EXPWY AND PHILLIPS HWY 12 RECKLESS DRIVER
150419259943 4-19 02:02 3000 PHILL 13 SUSPICIOUS PERSON
150419259941 4-19 01:59 W 8TH ST AND N MAIN ST 1050 TRAFFIC STOP
150419259932 4-19 01:58 3600 S KERNAN BLVD 2 63 DISPUTE INVOLVING ALCOHOL
150419259938 4-19 01:57 3300 PLUM ST 1050 TRAFFIC STOP
150419259935 4-19 01:56 11900 ATLANTIC BLVD 32 BURGLAR ALARM - AUDIBLE
150419259936 4-19 01:55 7100 BLANDING BLVD 76 ASSIST OTHER AGENCY
150419259934 4-19 01:55 STAR GOLD 17 PERSON DOWN OR SICK
150419259923 4-19 01:53 4300 WINDERGATE DR 22 DOMESTIC DISTURBANCE
150419259931 4-19 01:51 800 BERT RD 1050 TRAFFIC STOP
150419259928 4-19 01:49 1800 S KERNAN BLVD 13 SUSPICIOUS PERSON
150419259896 4-19 01:49 W 28TH ST AND STUART ST 64 NOISE COMPLAINT
150419259925 4-19 01:47 1400 MANOTAK AVE 13 SUSPICIOUS PERSON
150419259922 4-19 01:46 BEACH BLVD AND S UNIVERSITY BLVD 2 DRUNK PERSON
150419259889 4-19 01:46 8100 W COLONNADE CT 64 NOISE COMPLAINT
150419259913 4-19 01:46 8100 W COLONNADE CT 37 UNVERIFIED 911 CALL
150419259921 4-19 01:45 S I295 EXPWY AND E I10 EXPWY 12 RECKLESS DRIVER
150419259912 4-19 01:43 600 MONUMENT RD 2288 DOMESTIC DISPUTE WITH/ASSAULT
150419259920 4-19 01:42 7200 POWERS AVE 64 NOISE COMPLAINT
150419259911 4-19 01:35 3600 CASCADE RD 64 NOISE COMPLAINT
150419259892 4-19 01:34 12100 SAN JOSE BLVD 32 BURGLAR ALARM - AUDIBLE
150419259909 4-19 01:34 5200 BUICK AVE 8FP MISSING PERSON FOUL
150419259910 4-19 01:34 ATLANTIC BLVD AND S KERNAN BLVD 1050 TRAFFIC STOP
150419259901 4-19 01:30 4200 LIVINGSTON RD 37 UNVERIFIED 911 CALL
150419259899 4-19 01:28 3600 S KERNAN BLVD 33 DISCHARGING OF FIREARM
150419259902 4-19 01:25 100 W INDEPENDENT DR 88 ASSAULT
150419259898 4-19 01:23 8300 FREEDOM CROSSING TRL 6388 DISPUTE WITH ASSAULT
150419259900 4-19 01:21 3300 W 20TH ST 76 ASSIST OTHER AGENCY
150419259897 4-19 01:19 600 GOLFAIR BLVD 56 JUVENILE COMPLAINT
150419259860 4-19 01:19 3700 S SAN PABLO RD 64 NOISE COMPLAINT
150419259833 4-19 01:17 14300 LACKMAN LN 64 NOISE COMPLAINT
150419259893 4-19 01:17 1500 FAYE RD 61 FIGHT
150419259865 4-19 01:17 9000 SAN JOSE BLVD 13 SUSPICIOUS PERSON
150419259891 4-19 01:14 MC GLOTHLIN ST AND N OLD MIDDLEBURG RD 1050 TRAFFIC STOP
150419259879 4-19 01:13 3600 S KERNAN BLVD 64 NOISE COMPLAINT
150419259885 4-19 01:12 1500 FAYE RD 0 63 ARMED DISPUTE
150419259886 4-19 01:11 7200 W RHODE ISLAND DR 33 DISCHARGING OF FIREARM
150419259883 4-19 01:10 800 PINE MOSS RD 9 THEFT
150419259884 4-19 01:10 10200 SHOPS LN 63 DISPUTE
150419259882 4-19 01:09 400 W 25TH ST 2288 DOMESTIC DISPUTE WITH/ASSAULT
150419259881 4-19 01:09 3400 S NORTH RIDE CIR 3 HIT AND RUN CRASH
150419259880 4-19 01:08 4500 DIRECTORS RD 76 ASSIST OTHER AGENCY
150419259876 4-19 01:06 8400 MC GLOTHLIN ST 64 NOISE COMPLAINT
150419259839 4-19 01:06 6100 DU-CLAY RD 64 NOISE COMPLAINT
150419259877 4-19 01:06 12700 DURBIN LAKE DR 2 DRUNK PERSON
150419259878 4-19 01:06 13600 MT PLEASANT RD 1066 CANCEL
150419259875 4-19 01:06 4900 VERMONT RD 33 DISCHARGING OF FIREARM
150419259873 4-19 01:05 VERMONT RD AND W RHODE ISLAND DR 33 DISCHARGING OF FIREARM
150418259788 4-19 01:03 12700 BARTRAM PARK BLVD 64 NOISE COMPLAINT
150419259872 4-19 01:02 3100 HERRING RD 32 BURGLAR ALARM - AUDIBLE
150419259871 4-19 01:00 ATLANTIC BLVD AND WITHROW DR 1050 TRAFFIC STOP
150419259849 4-19 00:59 5600 110TH ST 63 DISPUTE
150419259870 4-19 00:57 800 CHAPMAN DR 2288 DOMESTIC DISPUTE WITH/ASSAULT
150419259868 4-19 00:56 COMMONWEALTH AVE AND N ELLIS RD 16 ROAD OBSTRUCTION
150419259867 4-19 00:56 POWERS AVE AND S OLD KINGS RD 33 DISCHARGING OF FIREARM
150419259864 4-19 00:52 BRICK RD AND W 31ST ST 63 DISPUTE
150419259832 4-19 00:52 9000 ATLANTIC BLVD 63 DISPUTE
150419259828 4-19 00:51 E I10 EXPWY AND CASSAT AVE 1 IMPAIRED/RECKLESS DRIVER
150419259862 4-19 00:49 E DUVAL ST AND A PHILIP RANDOLPH BLVD 96 ASSIST MOTORIST
150419259863 4-19 00:49 FOURAKER RD AND LE MANS DR 1050 TRAFFIC STOP
150419259859 4-19 00:48 3100 ROGERO RD 64 NOISE COMPLAINT
150419259861 4-19 00:48 PHILLIPS HWY AND EMERSON ST 1050 TRAFFIC STOP
150419259857 4-19 00:47 4500 DIRECTORS RD 32 BURGLAR ALARM - AUDIBLE
150419259856 4-19 00:46 ARLINGTON RD AND UNIVERSITY BLVD 96 ASSIST MOTORIST
150419259855 4-19 00:45 JONES RD AND OLD PLANK RD 1050 TRAFFIC STOP
150419259853 4-19 00:45 800 LAUREL ST 64 NOISE COMPLAINT
150419259852 4-19 00:43 10200 W BEAVER ST 63 DISPUTE
150419259851 4-19 00:42 PLYMOUTH PL AND HAMILTON ST 12 RECKLESS DRIVER
150418259780 4-19 00:41 6600 SHILOH CREEK DR 64 NOISE COMPLAINT
150419259835 4-19 00:39 1700 S CHAFFEE RD 63 DISPUTE
150419259842 4-19 00:39 S I295 EXPWY AND J TURNER BUTLER BLVD 4 63 CRASH INVOLVING DISPUTE
150419259817 4-19 00:38 3600 S KERNAN BLVD 64 NOISE COMPLAINT
150419259848 4-19 00:38 FOURAKER RD AND WINTERWOOD LN 1050 TRAFFIC STOP
150419259807 4-19 00:38 10900 BEACH BLVD 63 DISPUTE
150419259847 4-19 00:37 N MARKET ST AND E 1ST ST 1050 TRAFFIC STOP
150419259845 4-19 00:37 1500 S LANE AVE 63 DISPUTE
150418259787 4-19 00:36 7500 BEACH BLVD 63 DISPUTE
150419259836 4-19 00:36 BAYMEADOWS RD AND S I295 EXPWY 13 SUSPICIOUS PERSON
150419259846 4-19 00:35 5900 LENOX AVE 1 IMPAIRED/RECKLESS DRIVER
150419259843 4-19 00:34 W 8TH ST AND PERRY ST 1050 TRAFFIC STOP
150419259841 4-19 00:33 3400 N BRAHMA BULL CIR 64 NOISE COMPLAINT
150418259731 4-19 00:33 ATLANTIC BLVD AND S ST JOHNS BLUFF RD 6388 DISPUTE WITH ASSAULT
150419259834 4-19 00:32 7100 BLANDING BLVD 76 ASSIST OTHER AGENCY
150419259837 4-19 00:31 10400 TOURNAMENT LN 13 SUSPICIOUS PERSON
150418259751 4-19 00:30 800 CHAPMAN DR 64 NOISE COMPLAINT
150418259740 4-19 00:30 8900 NORMANDY BLVD 64 NOISE COMPLAINT
150419259831 4-19 00:29 5100 SHANNON AVE 63 DISPUTE
150419259830 4-19 00:27 CASSAT AVE AND POST ST 13 SUSPICIOUS PERSON
150419259829 4-19 00:26 6800 ARQUES RD 76 ASSIST OTHER AGENCY
150419259795 4-19 00:25 6100 COLLINS RD 6388 DISPUTE WITH ASSAULT
150419259815 4-19 00:25 3000 4TH STREET CIR 16 ROAD OBSTRUCTION
150419259820 4-19 00:25 1500 LOUISIANA ST 8 MISSING PERSON
150419259822 4-19 00:24 S HAWAII DR AND FIJI CT 64 NOISE COMPLAINT
150419259826 4-19 00:24 9800 ATLANTIC BLVD 32 BURGLAR ALARM - AUDIBLE
150419259797 4-19 00:22 900 ALDERSIDE ST 22 DOMESTIC DISTURBANCE
150419259824 4-19 00:22 N I295 EXPWY AND GATE PKWY 12 RECKLESS DRIVER
150419259810 4-19 00:22 1300 N PEARL ST 64 NOISE COMPLAINT
150419259823 4-19 00:22 N I295 EXPWY AND BAYMEADOWS RD 12 RECKLESS DRIVER
150419259825 4-19 00:21 PHILLIPS HWY AND W UNIVERSITY BLVD 1050 TRAFFIC STOP
150419259796 4-19 00:20 13000 N BIRCH BARK CT 64 NOISE COMPLAINT
150419259800 4-19 00:20 12500 CHARLES COVE RD 64 NOISE COMPLAINT
150419259818 4-19 00:19 12000 EDDING CT 22 DOMESTIC DISTURBANCE
150419259792 4-19 00:18 500 W 25TH ST 64 NOISE COMPLAINT
150419259816 4-19 00:15 REDRAC ST AND DENAUD ST 64 NOISE COMPLAINT
150419259793 4-19 00:14 6800 ARQUES RD 63 DISPUTE
150419259814 4-19 00:12 11500 GWYNFORD LN 88 ASSAULT
150419259812 4-19 00:11 9800 BEACH BLVD 32 BURGLAR ALARM - AUDIBLE
150419259813 4-19 00:10 4500 DIRECTORS RD 32 BURGLAR ALARM - AUDIBLE
150419259804 4-19 00:10 2100 KINGS RD 63 DISPUTE
150419259798 4-19 00:09 9400 REGENCY SQUARE BLVD 61 FIGHT
150419259794 4-19 00:08 5700 FLICKER AVE 64 NOISE COMPLAINT
150419259802 4-19 00:08 4800 BIG ISLAND DR 2 DRUNK PERSON
150419259803 4-19 00:08 4800 ATLANTIC BLVD 2 DRUNK PERSON
150419259808 4-19 00:08 N I295 EXPWY AND ALTA DR 4 53 TRAFFIC CRASH PERSON INJURED
150419259809 4-19 00:07 100 N FULLER WARREN BRG 1050 TRAFFIC STOP
150418259763 4-19 00:07 100 WAYSIDE LN 64 NOISE COMPLAINT
150419259806 4-19 00:07 N I295 EXPWY AND ZOO PKWY 4 53 TRAFFIC CRASH PERSON INJURED
150418259754 4-19 00:07 400 E 8TH ST 4 AUTO CRASH
150418259770 4-19 00:06 1700 S SAN PABLO RD 64 NOISE COMPLAINT
150418259773 4-19 00:06 3000 IMPERIAL ST 64 NOISE COMPLAINT
150419259799 4-19 00:05 3700 STUART ST 64 NOISE COMPLAINT
150419259791 4-19 00:02 100 N PEARL ST 2 63 DISPUTE INVOLVING ALCOHOL
150419259790 4-19 00:02 6800 ARQUES RD 61 FIGHT
150418259750 4-19 00:00 1200 SPEARING ST 64 NOISE COMPLAINT
150418259760 4-18 23:59 8200 DIX ELLIS TRL 63 DISPUTE
150418259786 4-18 23:59 9500 ARLINGTON EXPWY 56 JUVENILE COMPLAINT
150418259778 4-18 23:58 800 ONTARIO ST 33 DISCHARGING OF FIREARM
150418259785 4-18 23:58 8800 BEACH BLVD 76 ASSIST OTHER AGENCY
150418259772 4-18 23:57 200 SARA DR 4 AUTO CRASH
150418259776 4-18 23:56 6300 DEVONHURST DR 32 BURGLAR ALARM - AUDIBLE
150418259781 4-18 23:56 E 1ST ST AND FLORIDA AVE 1050 TRAFFIC STOP
150418259768 4-18 23:55 3000 MAYPORT RD 76 ASSIST OTHER AGENCY
150418259777 4-18 23:54 N I95 EXPWY AND EMERSON ST 1050 TRAFFIC STOP
150418259774 4-18 23:54 1500 W 45TH ST 9 THEFT
150418259771 4-18 23:53 4400 ROOSEVELT BLVD 63 DISPUTE
150418259692 4-18 23:52 8100 W COLONNADE CT 64 NOISE COMPLAINT
150418259743 4-18 23:51 1500 FLANDERS RD 63 DISPUTE
150418259765 4-18 23:49 5300 GLENWOOD AVE 2 22 DOMESTIC DISTURBANCE
150418259769 4-18 23:49 N I95 EXPWY AND STAUGEXIT N I95 RP 13 SUSPICIOUS PERSON
150418259767 4-18 23:49 6600 BENNETT CREEK DR 64 NOISE COMPLAINT
150418259758 4-18 23:47 8600 NEW KINGS RD 2 63 DISPUTE INVOLVING ALCOHOL
150418259764 4-18 23:46 8700 NEW KINGS RD 76 ASSIST OTHER AGENCY
150418259726 4-18 23:45 5500 W UNIVERSITY BLVD 3 HIT AND RUN CRASH
150418259761 4-18 23:43 103RD ST AND BLANDING BLVD 12 RECKLESS DRIVER
150418259718 4-18 23:43 4500 E JADE DR 54 ILLEGALLY PARKED CAR
150418259759 4-18 23:42 900 NEW BERLIN RD 13 SUSPICIOUS PERSON
150418259756 4-18 23:41 1300 BROOKWOOD FOREST BLVD 22 DOMESTIC DISTURBANCE
150418259757 4-18 23:41 S LANE AVE AND W I10 EXPWY 1050 TRAFFIC STOP
150418259722 4-18 23:40 6400 SAN JUAN AVE 1066 CANCEL
150418259753 4-18 23:39 2300 MAYPORT RD 1 IMPAIRED/RECKLESS DRIVER
150418259672 4-18 23:39 BLANDING BLVD AND CASSAT AVE 64 NOISE COMPLAINT
150418259749 4-18 23:37 N MAIN ST AND TROUT RIVER DR 76 ASSIST OTHER AGENCY
150418259747 4-18 23:37 12400 BISCAYNE BLVD 63 DISPUTE
150418259752 4-18 23:36 HICKS RD AND BLANDING BLVD 16 ROAD OBSTRUCTION
150418259748 4-18 23:35 ATLANTIC BLVD AND ART MUSEUM DR 12 RECKLESS DRIVER
150418259746 4-18 23:35 3200 NOLAN ST 22 DOMESTIC DISTURBANCE
150418259724 4-18 23:34 8200 103RD ST 32 BURGLAR ALARM - AUDIBLE
150418259725 4-18 23:34 2400 JAMMES RD 64 NOISE COMPLAINT
150418259727 4-18 23:33 6900 S GAILLARDIA RD 33 DISCHARGING OF FIREARM
150418259745 4-18 23:33 E BEAVER ST AND N OCEAN ST 13 SUSPICIOUS PERSON
150418259719 4-18 23:33 900 EASTPORT RD 32 BURGLAR ALARM - AUDIBLE
150418259723 4-18 23:33 6000 KENNERLY RD 32 BURGLAR ALARM - AUDIBLE
150418259741 4-18 23:33 2000 OAK GLEN RD 19 ANIMAL INVESTIGATION
150418259695 4-18 23:32 3600 CASCADE RD 64 NOISE COMPLAINT
150418259689 4-18 23:32 6600 TERRY RD 63 DISPUTE
150418259744 4-18 23:31 W BEAVER ST AND S JACKSON AVE 16 ROAD OBSTRUCTION
150418259700 4-18 23:30 10200 SHOPS LN 5582 HOLDING ONE FOR SHOPLIFTING
150418259684 4-18 23:29 12300 N SONDRA COVE TRL 8 MISSING PERSON
150418259730 4-18 23:28 3100 S ST JOHNS BLUFF RD 64 NOISE COMPLAINT
150418259735 4-18 23:28 1700 E 27TH ST 2 63 DISPUTE INVOLVING ALCOHOL
150418259737 4-18 23:27 9500 ARGYLE FOREST BLVD 1066 CANCEL
150418259734 4-18 23:27 8500 W BEAVER ST 76 ASSIST OTHER AGENCY
150418259736 4-18 23:25 2200 HIDDEN WATERS DR W 76 ASSIST OTHER AGENCY
150418259732 4-18 23:25 5100 TAN ST 2288 DOMESTIC DISPUTE WITH/ASSAULT
150418259706 4-18 23:24 7700 MELVIN RD 56 JUVENILE COMPLAINT
150418259728 4-18 23:23 1700 W 13TH ST 63 DISPUTE
150418259713 4-18 23:22 AVENT DR AND PALM HILLS DR 13 SUSPICIOUS PERSON
150418259696 4-18 23:20 4400 E TOUCHTON RD 63 DISPUTE
150418259712 4-18 23:19 W 23RD ST AND CHASE AVE 13 SUSPICIOUS PERSON
150418259721 4-18 23:18 W 44TH ST AND N MAIN ST 56 JUVENILE COMPLAINT
150418259720 4-18 23:18 700 RALPH ST 32 BURGLAR ALARM - AUDIBLE
150418259714 4-18 23:17 9000 WESTERN LAKE DR 63 DISPUTE
150418259717 4-18 23:17 300 A PHILIP RANDOLPH BLVD 4 AUTO CRASH
150418259685 4-18 23:15 10500 ABILENE RD 64 NOISE COMPLAINT
150418259671 4-18 23:15 3100 BELDEN CIR 64 NOISE COMPLAINT
150418259686 4-18 23:15 1500 FLANDERS RD 64 NOISE COMPLAINT
150418259704 4-18 23:15 12200 WOODBEND CT 64 NOISE COMPLAINT
150418259709 4-18 23:14 1100 N BAYSHORE DR 37 UNVERIFIED 911 CALL
150418259711 4-18 23:14 KING ST AND PARK ST 1 IMPAIRED/RECKLESS DRIVER
150418259708 4-18 23:13 1700 SHELTON RD 88J ASSAULT JUST OCCURRED
150418259705 4-18 23:13 W EDGEWOOD AVE AND S I95 EXPWY 4 AUTO CRASH
150418259670 4-18 23:13 1700 S SAN PABLO RD 64 NOISE COMPLAINT
150418259698 4-18 23:13 1600 DUNN AVE 32 BURGLAR ALARM - AUDIBLE
150418259702 4-18 23:12 3300 MADGE ST 63 DISPUTE
150418259701 4-18 23:12 7500 POWERS AVE 76 ASSIST OTHER AGENCY
150418259679 4-18 23:11 8700 SOUTHSIDE BLVD 21C BURGLARY CONVEYANCE
150418259697 4-18 23:10 9000 3RD AVE 64 NOISE COMPLAINT
150418259675 4-18 23:10 8300 PINEVERDE LN 61 FIGHT
150418259677 4-18 23:09 10000 BELLE RIVE BLVD 64 NOISE COMPLAINT
150418259643 4-18 23:08 3600 S KERNAN BLVD 63 DISPUTE
150418259668 4-18 23:08 4800 PLAYSCHOOL DR 33 DISCHARGING OF FIREARM
150418259638 4-18 23:06 5600 MAXINE DR 64 NOISE COMPLAINT
150418259691 4-18 23:05 3800 W UNIVERSITY BLVD 0 23HJ ARMED ROBBERY HOME INVASION JUST OCCURRED
150418259681 4-18 23:04 J TURNER BUTLER BLVD AND HODGES BLVD 12 RECKLESS DRIVER
150418259687 4-18 23:03 11200 OLD ST AUGUSTINE RD 38 TRAFFIC ASSIGNMENT
150418259682 4-18 23:02 4300 SPRINGFIELD BLVD 64 NOISE COMPLAINT
150418259674 4-18 23:00 300 CARAVAN CIR 63 DISPUTE
150418259667 4-18 23:00 6100 YOUNGERMAN CIR 37 UNVERIFIED 911 CALL
150418259680 4-18 23:00 3800 S UNIVERSITY BLVD 0 23HJ ARMED ROBBERY HOME INVASION JUST OCCURRED
150418259664 4-18 22:59 700 RIVERSIDE AVE 63 DISPUTE
150418259678 4-18 22:59 1600 FOREST HILLS RD 32 BURGLAR ALARM - AUDIBLE
150418259663 4-18 22:57 3300 DILLON ST 28 DELIVER MESSAGE
150418259676 4-18 22:56 PHILLIPS HWY AND N I295 EXPWY 1050 TRAFFIC STOP
150418259673 4-18 22:56 500 E 63RD ST 5388 ASSAULT INVOLVING INJURY
150418259662 4-18 22:56 10600 SAN JOSE BLVD 13 SUSPICIOUS PERSON
150418259660 4-18 22:55 10500 ABILENE RD 64 NOISE COMPLAINT
150418259666 4-18 22:54 W BEAVER ST AND N MYRTLE AVE 2 DRUNK PERSON
150418259669 4-18 22:53 W WILLESDON DR AND SUTTON LAKES BLVD 1050 TRAFFIC STOP
150418259641 4-18 22:52 2100 SOTTERLEY LN 22 DOMESTIC DISTURBANCE
150418259665 4-18 22:51 10900 BEACH BLVD 16 ROAD OBSTRUCTION
150418259654 4-18 22:50 N I295 EXPWY AND BEACH BLVD 12 RECKLESS DRIVER
150418259646 4-18 22:49 N I295 EXPWY AND PHILLIPS HWY 12 RECKLESS DRIVER
150418259627 4-18 22:49 100 N FULLER WARREN BRG 63 DISPUTE
150418259625 4-18 22:49 5300 DIVEN DR 32 BURGLAR ALARM - AUDIBLE
150418259659 4-18 22:48 2500 WOOLERY DR 14R VANDALISM RESIDENCE
150418259649 4-18 22:47 10200 W BEAVER ST 2 63 DISPUTE INVOLVING ALCOHOL
150418259634 4-18 22:47 6200 DU-CLAY RD 64 NOISE COMPLAINT
150418259651 4-18 22:47 1900 ART MUSEUM DR 64 NOISE COMPLAINT
150418259657 4-18 22:47 900 W ADAMS ST 76 ASSIST OTHER AGENCY
150418259653 4-18 22:46 N I95 EXPWY 12 RECKLESS DRIVER
150418259626 4-18 22:45 4300 SUNBEAM RD 64 NOISE COMPLAINT
150418259648 4-18 22:44 HODGES BLVD AND ATLANTIC BLVD 2 63 DISPUTE INVOLVING ALCOHOL
150418259652 4-18 22:44 N I95 EXPWY AND DUNN AVE 96 ASSIST MOTORIST
150418259592 4-18 22:41 E HUNTINGTON FOREST BLVD AND S DELANO DR 64 NOISE COMPLAINT
150418259601 4-18 22:41 1100 AIRPORT RD 63 DISPUTE
150418259639 4-18 22:41 100 W UNION ST 2 63 DISPUTE INVOLVING ALCOHOL
150418259636 4-18 22:40 1600 TIMBER CROSSING LN 13 SUSPICIOUS PERSON
150418259644 4-18 22:40 N I95 EXPWY AND KINGS RD 1050 TRAFFIC STOP
150418259620 4-18 22:39 14700 MANDARIN RD 33 DISCHARGING OF FIREARM
150418259642 4-18 22:39 8800 MAIN 1050 TRAFFIC STOP
150418259630 4-18 22:39 5600 COLLINS RD 22 DOMESTIC DISTURBANCE
150418259629 4-18 22:37 1500 S LANE AVE 4 AUTO CRASH
150418259605 4-18 22:36 CENTURY ST AND HARE AVE 64 NOISE COMPLAINT
150418259633 4-18 22:35 1500 VAN BUREN ST 0 88P ARMED ASSAULT IN PROGRESS
150418259635 4-18 22:35 2800 UNIVERSITY BLVD 32X SILENT ALARM (ROBBERY PANIC OR AWARE)
150418259631 4-18 22:34 4000 SUNBEAM RD 0 23HJ ARMED ROBBERY HOME INVASION JUST OCCURRED
150418259628 4-18 22:33 8500 HERLONG RD 27 MENTALLY ILL PERSON
150418259622 4-18 22:33 4200 W MONCRIEF RD 64 NOISE COMPLAINT
150418259623 4-18 22:31 6500 CRIMSON LEAF LN 60 SUICIDE OR ATTEMPT
150418259586 4-18 22:30 OAKLEAF VILLAGE PKWY AND GRAND FALLS DR 64 NOISE COMPLAINT
150418259616 4-18 22:30 700 RAINER RD 13 SUSPICIOUS PERSON
150418259621 4-18 22:30 ST JOHNS/LONG STAR 1050 TRAFFIC STOP
150418259618 4-18 22:28 TIMUQUANA RD AND TWINING RD 1050 TRAFFIC STOP
150418259603 4-18 22:28 DILLON ST AND DAY AVE 16 ROAD OBSTRUCTION
150418259614 4-18 22:27 6200 ENDELSTOW LN 32 BURGLAR ALARM - AUDIBLE
150418259615 4-18 22:26 ARGYLE FOREST BLVD AND BLANDING BLVD 13 SUSPICIOUS PERSON
150418259613 4-18 22:25 2000 W EDGEWOOD AVE 13 SUSPICIOUS PERSON
150418259611 4-18 22:23 10500 BAYMEADOWS RD 38 TRAFFIC ASSIGNMENT
150418259583 4-18 22:20 1700 LEON RD 27 MENTALLY ILL PERSON
150418259609 4-18 22:19 SOUTHSIDE BLVD AND HOGAN RD 12 RECKLESS DRIVER
150418259590 4-18 22:19 5100 JOHNSON CREEK DR 33 DISCHARGING OF FIREARM
150418259571 4-18 22:19 10900 S BLYTH CT 4 AUTO CRASH
150418259607 4-18 22:18 APRIL ST AND BRANNON AVE 13 SUSPICIOUS PERSON
150418259604 4-18 22:18 10700 N MAIN ST 5388 ASSAULT INVOLVING INJURY
150418259576 4-18 22:17 9300 103RD ST 73 DRUG INVESTIGATION
150418259602 4-18 22:16 UNIV/SAN JOSE 1050 TRAFFIC STOP
150418259600 4-18 22:16 5800 N GASPAR CIR 8 MISSING PERSON
150418259573 4-18 22:15 7400 PLANTATION CLUB DR 64 NOISE COMPLAINT
150418259598 4-18 22:15 7200 POWERS AVE 0 23HJ ARMED ROBBERY HOME INVASION JUST OCCURRED
150418259599 4-18 22:14 PHILLIPS HWY AND GREENLAND RD 1050 TRAFFIC STOP
150418259597 4-18 22:14 5400 BURDETTE RD 64 NOISE COMPLAINT
150418259596 4-18 22:13 1800 SAN MARCO BLVD 63 DISPUTE
150418259593 4-18 22:13 PALM AVE AND CHILDRENS WAY 13 SUSPICIOUS PERSON
150418259595 4-18 22:12 S I95 EXPWY AND SAN MARCO BLVD 4 53 TRAFFIC CRASH PERSON INJURED
150418259589 4-18 22:12 8400 BLANDING BLVD 0 13 ARMED SUSPICIOUS PERSON
150418259574 4-18 22:11 17300 ELSINORE DR 63 DISPUTE
150418259588 4-18 22:10 4000 LONDON RD 32 BURGLAR ALARM - AUDIBLE
150418259582 4-18 22:10 5600 EDENFIELD RD 9T THEFT (TELESERVE)
150418259570 4-18 22:09 4700 S CUMBERLAND STATION DR 37 UNVERIFIED 911 CALL
150418259587 4-18 22:09 CEDARBROOK/ CEDARPOINT RD 54 ILLEGALLY PARKED CAR
150418259572 4-18 22:09 300 SPRING FOREST AVE 63 DISPUTE
150418259585 4-18 22:09 ARGYLE CORNERS DR AND RAMPART RD 1050 TRAFFIC STOP
150418259579 4-18 22:07 1000 GOLFAIR BLVD 63 DISPUTE
150418259580 4-18 22:07 W 8TH ST AND SILVER ST 1050 TRAFFIC STOP
150418259575 4-18 22:06 S I295 EXPWY AND WILSON BLVD 4 53 TRAFFIC CRASH PERSON INJURED
150418259481 4-18 22:06 14700 BARTRAM PARK BLVD 63 DISPUTE
150418259578 4-18 22:05 FOURAKER RD AND N OLD MIDDLEBURG RD 63 DISPUTE
150418259568 4-18 22:01 8000 HELSTON DR 37 UNVERIFIED 911 CALL
150418259564 4-18 22:00 9600 N MAIN ST 32 BURGLAR ALARM - AUDIBLE
150418259561 4-18 21:59 13000 CITY SQUARE DR 32 BURGLAR ALARM - AUDIBLE
150418259558 4-18 21:59 1900 W BEAVER ST 32 BURGLAR ALARM - AUDIBLE
150418259559 4-18 21:58 S I295 EXPWY AND 103RD ST 4 53 TRAFFIC CRASH PERSON INJURED
150418259563 4-18 21:57 S ST JOHNS BLUFF RD AND LOST PINE DR 1050 TRAFFIC STOP
150418259562 4-18 21:57 KING ST AND OAK ST 4 AUTO CRASH
150418259556 4-18 21:56 10100 ARROWHEAD DR 64 NOISE COMPLAINT
150418259552 4-18 21:56 1600 FOREST HILLS RD 32 BURGLAR ALARM - AUDIBLE
150418259557 4-18 21:55 BISHOPSWOOD DR AND ARGYLE FOREST BLVD 1050 TRAFFIC STOP
150418259555 4-18 21:55 1900 W EDGEWOOD AVE 37 UNVERIFIED 911 CALL
150418259553 4-18 21:53 7500 ARLINGTON EXPWY 0 23IJ ARMED ROBBERY INDIVIDUAL JUST OCCURRED
150418259506 4-18 21:52 8300 BAYMEADOWS RD 32 BURGLAR ALARM - AUDIBLE
150418259516 4-18 21:50 10500 ABILENE RD 64 NOISE COMPLAINT
150418259550 4-18 21:49 3300 LENOX AVE 32 BURGLAR ALARM - AUDIBLE
150418259493 4-18 21:49 9400 PHILLIPS HWY 3 HIT AND RUN CRASH
150418259543 4-18 21:49 9500 ARMELLE WAY 73 DRUG INVESTIGATION
150418259549 4-18 21:49 ARGYLE CORNERS DR AND RAMPART RD 1050 TRAFFIC STOP
150418259537 4-18 21:49 WINDERGATE DR AND OLD ST AUGUSTINE RD 64 NOISE COMPLAINT
150418259548 4-18 21:48 1300 PINEGROVE CT 64 NOISE COMPLAINT
150418259517 4-18 21:48 6500 OVINGTON RD 63 DISPUTE
150418259547 4-18 21:45 10200 NORMANDY COVE ST 1066 CANCEL
150418259545 4-18 21:44 E 8TH ST AND N LIBERTY ST 5388 ASSAULT INVOLVING INJURY
150418259544 4-18 21:44 13200 CITY SQUARE DR 56 JUVENILE COMPLAINT
150418259540 4-18 21:43 E 8TH ST AND N LIBERTY ST 61 FIGHT
150418259542 4-18 21:42 N I295 EXPWY AND S I95 EXPWY 4 53 TRAFFIC CRASH PERSON INJURED
150418259538 4-18 21:40 MAIN/8TH 1050 TRAFFIC STOP
150418259496 4-18 21:40 6900 E LENOIR AVE 63 DISPUTE
150418259535 4-18 21:39 W 8TH ST AND N MAIN ST 1066 CANCEL
150418259536 4-18 21:39 2100 EMERSON ST 13 SUSPICIOUS PERSON
150418259527 4-18 21:37 4900 W UNIVERSITY BLVD 4 AUTO CRASH
150418259532 4-18 21:37 1100 BARRS ST 8 27 MISSING MENTALLY ILL
150418259533 4-18 21:36 103RD ST AND TAMPICO RD 1050 TRAFFIC STOP
150418259531 4-18 21:35 S OLD MIDDLEBURG RD AND ARGYLE FOREST BLVD 1050 TRAFFIC STOP
150418259530 4-18 21:35 1900 S ST JOHNS BLUFF RD 4 AUTO CRASH
150418259518 4-18 21:35 S I295 EXPWY AND SAN JOSE BLVD 1 IMPAIRED/RECKLESS DRIVER
150418259521 4-18 21:33 500 E 61ST ST 21R BURGLARY RESIDENCE
150418259509 4-18 21:33 1200 UNIVERSITY BLVD 63 DISPUTE
150418259520 4-18 21:32 S I95 EXPWY AND PECAN PARK RD 12 RECKLESS DRIVER
150418259525 4-18 21:31 8400 BLANDING BLVD 13 SUSPICIOUS PERSON
150418259524 4-18 21:30 E I10 EXPWY AND ROOSEVELT EXPWY 76 ASSIST OTHER AGENCY
150418259497 4-18 21:28 7100 EDGE ST 9 THEFT
150418259503 4-18 21:28 14000 BEACH BLVD 32 BURGLAR ALARM - AUDIBLE
150418259505 4-18 21:27 9800 LANTERN ST 37 UNVERIFIED 911 CALL
150418259515 4-18 21:27 9200 HIPPS RD 1050 TRAFFIC STOP
150418259480 4-18 21:27 3300 NOLAN ST 54 ILLEGALLY PARKED CAR
150418259511 4-18 21:25 4300 VICTOR ST 0 23IJ ARMED ROBBERY INDIVIDUAL JUST OCCURRED
150418259468 4-18 21:25 6300 AUTUMN BERRY CIR 60 SUICIDE OR ATTEMPT
150418259512 4-18 21:24 TIMUQUANA RD AND CATOMA ST 13 SUSPICIOUS PERSON
150418259513 4-18 21:24 SPRING PARK RD AND EMERSON ST 1050 TRAFFIC STOP
150418259507 4-18 21:24 7000 ST IVES CT 32 BURGLAR ALARM - AUDIBLE
150418259510 4-18 21:24 MARTIN LUTHER KING JR PKWY AND N MYRTLE AVE 38 TRAFFIC ASSIGNMENT
150418259508 4-18 21:23 N I295 EXPWY AND BAYMEADOWS RD 1050 TRAFFIC STOP
150418259494 4-18 21:22 3100 CECELIA ST 13 SUSPICIOUS PERSON
150418259488 4-18 21:21 3100 CECELIA ST 13 SUSPICIOUS PERSON
150418259504 4-18 21:21 3200 UNIVERSITY BLVD 88P ASSAULT IN PROGRESS
150418259501 4-18 21:21 2600 W UNIVERSITY BLVD 32 BURGLAR ALARM - AUDIBLE
150418259498 4-18 21:20 W STATE ST AND N MAIN ST 12 RECKLESS DRIVER
150418259499 4-18 21:19 N I295 EXPWY AND BAYMEADOWS RD 96 ASSIST MOTORIST
150418259486 4-18 21:19 6200 W ALFREDO DR 22 DOMESTIC DISTURBANCE
150418259485 4-18 21:17 SOUTHSIDE BLVD AND ATLANTIC BLVD 3 HIT AND RUN CRASH
150418259484 4-18 21:17 7700 GALVESTON AVE 63 DISPUTE
150418259495 4-18 21:17 N BROOKVIEW DR AND ASTRONAUT CT 73 DRUG INVESTIGATION
150418259491 4-18 21:16 11200 RIDGETOP LN 76 ASSIST OTHER AGENCY
150418259456 4-18 21:16 7300 NORTH SHORE DR 63 DISPUTE
150418259492 4-18 21:16 1500 GUARDIAN CT 1066 CANCEL
150418259490 4-18 21:15 W UNIVERSITY BLVD AND PHILLIPS HWY 12 RECKLESS DRIVER
150418259489 4-18 21:15 MARTIN LUTHER KING JR PKWY AND BOULEVARD 1050 TRAFFIC STOP
150418259487 4-18 21:14 1600 FOREST HILLS RD 32 BURGLAR ALARM - AUDIBLE
150418259464 4-18 21:13 10800 BAHIA DR 20 PROWLER/PEEPING TOM
150418259483 4-18 21:13 900 W ADAMS ST 76 ASSIST OTHER AGENCY
150418259457 4-18 21:13 9000 TAYLOR FIELD RD 63 DISPUTE
150418259482 4-18 21:12 4400 ROOSEVELT BLVD 1050 TRAFFIC STOP
150418259447 4-18 21:11 8200 FIRETOWER RD 63 DISPUTE
150418259407 4-18 21:10 FOURAKER RD AND N OLD MIDDLEBURG RD 4 AUTO CRASH
150418259471 4-18 21:10 REDPOLL AVE AND SISKIN AVE 64 NOISE COMPLAINT
150418259470 4-18 21:10 7800 103RD ST 63 DISPUTE
150418259448 4-18 21:09 8900 NORMANDY BLVD 63 DISPUTE
150418259472 4-18 21:09 4800 PARETE CIR 21RJ BURGLARY RESIDENCE JUST OCCURRED
150418259431 4-18 21:08 1700 S SAN PABLO RD 64 NOISE COMPLAINT
150418259476 4-18 21:08 10300 OLD ST AUGUSTINE RD 76 ASSIST OTHER AGENCY
150418259477 4-18 21:08 S ELLIS RD AND HIGHWAY AVE 4 53 TRAFFIC CRASH PERSON INJURED
150418259478 4-18 21:08 5000 NORMANDY BLVD 1050 TRAFFIC STOP
150418259463 4-18 21:08 9500 ARLINGTON EXPWY 5582 HOLDING ONE FOR SHOPLIFTING
150418259475 4-18 21:07 4300 HERSCHEL ST 13 SUSPICIOUS PERSON
150418259462 4-18 21:07 8100 ALDERMAN RD 63 DISPUTE
150418259467 4-18 21:05 4800 PLAYSCHOOL DR 63 DISPUTE
150418259469 4-18 21:04 MERRILL RD AND TOWNSEND BLVD 1050 TRAFFIC STOP
150418259466 4-18 21:03 W UNIVERSITY BLVD AND PHILLIPS HWY 1050 TRAFFIC STOP
150418259465 4-18 21:02 8200 SPRINGTREE RD 1050 TRAFFIC STOP
150418259443 4-18 21:02 1800 W 23RD ST 22 DOMESTIC DISTURBANCE
150418259458 4-18 21:01 ROOSEVELT BLVD AND TIMUQUANA RD 1 IMPAIRED/RECKLESS DRIVER
150418259449 4-18 21:01 MARTIN LUTHER KING JR PKWY AND S I95 EXPWY 4 AUTO CRASH
150418259461 4-18 21:00 N I295 EXPWY AND S ST JOHNS BLUFF RD 4 AUTO CRASH
150418259460 4-18 21:00 N I295 EXPWY AND S ST JOHNS BLUFF RD 4 AUTO CRASH
150418259459 4-18 21:00 8800 MONCRIEF-DINSMORE RD 32 BURGLAR ALARM - AUDIBLE
150418259446 4-18 20:59 LEM TURNER RD AND LANNIE RD 4 AUTO CRASH
150418259417 4-18 20:59 9000 SMOKETREE DR 22 DOMESTIC DISTURBANCE
150418259452 4-18 20:57 3700 TOLEDO RD 8 MISSING PERSON
150418259451 4-18 20:56 10300 SEAL RD 12 RECKLESS DRIVER
150418259445 4-18 20:56 5000 FREDERICKSBURG AVE 13 SUSPICIOUS PERSON
150418259444 4-18 20:54 5900 WINDSOR FOREST DR 76 ASSIST OTHER AGENCY
150418259426 4-18 20:54 N MYRTLE AVE AND MC CONIHE ST 33 DISCHARGING OF FIREARM
150418259438 4-18 20:53 700 N LINCOLN CT 37 UNVERIFIED 911 CALL
150418259442 4-18 20:52 9800 CREEKFRONT RD 13 SUSPICIOUS PERSON
150418259384 4-18 20:52 9300 NORFOLK BLVD 23I ROBBERY INDIVIDUAL
150418259439 4-18 20:52 9000 COCOA AVE 32 BURGLAR ALARM - AUDIBLE
150418259441 4-18 20:52 8400 SPRINGTREE RD 13 SUSPICIOUS PERSON
150418259433 4-18 20:51 1100 E BUTCH BAINE DR 32 BURGLAR ALARM - AUDIBLE
150418259436 4-18 20:50 RICKER RD AND 103RD ST 3 HIT AND RUN CRASH
150418259379 4-18 20:50 2100 HUBBARD ST 9T THEFT (TELESERVE)
150418259440 4-18 20:50 6900 N HANSON DR 22 DOMESTIC DISTURBANCE
150418259434 4-18 20:48 BLANDING BLVD AND COLLINS RD 1050 TRAFFIC STOP
150418259427 4-18 20:45 100 S BUCKMAN BRG 96 ASSIST MOTORIST
150418259423 4-18 20:44 2000 HYDE PARK RD 22 DOMESTIC DISTURBANCE
150418259365 4-18 20:44 2400 COLEMAN CT 63 DISPUTE
150418259428 4-18 20:43 7100 BLANDING BLVD 1050 TRAFFIC STOP
150418259399 4-18 20:43 5500 BARKER ST 63 DISPUTE
150418259425 4-18 20:43 4100 MARIANNA RD 76 ASSIST OTHER AGENCY
150418259416 4-18 20:43 12500 DEWHURST CIR 32 BURGLAR ALARM - AUDIBLE
150418259424 4-18 20:42 8300 BLANDING BLVD 96 ASSIST MOTORIST
150418259421 4-18 20:41 1200 ACORN ST 13 SUSPICIOUS PERSON
150418259387 4-18 20:40 11500 GWYNFORD LN 6388 DISPUTE WITH ASSAULT
150418259410 4-18 20:40 11500 GWYNFORD LN 6388 DISPUTE WITH ASSAULT
150418259419 4-18 20:39 S ST JOHNS BLUFF RD AND S I295 EXPWY 4 AUTO CRASH
150418259420 4-18 20:39 3000 PHILLIPS HWY 63 DISPUTE
150418259334 4-18 20:37 1100 ALTA VISTA ST 63 DISPUTE
150418259411 4-18 20:36 4300 HERCULES AVE 1066 CANCEL
150418259418 4-18 20:35 1200 MONUMENT RD 1050 TRAFFIC STOP
150418259405 4-18 20:35 13200 CITY SQUARE DR 5582 HOLDING ONE FOR SHOPLIFTING
150418259415 4-18 20:34 10500 N MAIN ST 1050 TRAFFIC STOP
150418259414 4-18 20:33 1600 FOREST HILLS RD 32 BURGLAR ALARM - AUDIBLE
150418259413 4-18 20:33 LOWELL AVE AND N EDGEWOOD AVE 16 ROAD OBSTRUCTION
150418259412 4-18 20:33 3100 SPRING PARK RD 1050 TRAFFIC STOP
150418259389 4-18 20:32 3200 NOLAN ST 22 DOMESTIC DISTURBANCE
150418259408 4-18 20:32 600 FERN ST 63 DISPUTE
150418259409 4-18 20:32 8100 CABIN LAKE CIR 63 DISPUTE
150418259406 4-18 20:29 6700 103RD ST 1050 TRAFFIC STOP
150418259404 4-18 20:29 N I295 EXPWY AND OLD ST AUGUSTINE RD 1050 TRAFFIC STOP
150418259401 4-18 20:29 N I95 EXPWY AND MAX LEGGETT PKWY 12 RECKLESS DRIVER
150418259381 4-18 20:28 2600 N MAIN ST 9J THEFT JUST OCCURRED
150418259394 4-18 20:26 900 ONTARIO ST 0 13 ARMED SUSPICIOUS PERSON
150418259398 4-18 20:26 SUNI PINES BLVD AND BEACH BLVD 3 HIT AND RUN CRASH
150418259397 4-18 20:26 ARGYLE FOREST BLVD AND LOCH HIGHLANDS BLVD 54 ILLEGALLY PARKED CAR
150418259378 4-18 20:25 SOUTEL DR AND 4TH AVE 14CJ VANDALISM CONVEYANCE JUST OCCURRED
150418259372 4-18 20:25 5900 LONGCHAMP DR 13 SUSPICIOUS PERSON
150418259393 4-18 20:25 PARENTAL HOME RD AND BEACH BLVD 4 53 TRAFFIC CRASH PERSON INJURED
150418259391 4-18 20:25 PARENTAL HOME RD AND BEACH BLVD 4 53 TRAFFIC CRASH PERSON INJURED
150418259392 4-18 20:24 10500 BAYMEADOWS RD 13 SUSPICIOUS PERSON
150418259388 4-18 20:23 1000 OAK ST 1066 CANCEL
150418259335 4-18 20:23 10700 E CLYDESDALE DR 14RT VANDALISM RESIDENCE TELESERVE
150418259386 4-18 20:23 8300 HOGAN RD 76 ASSIST OTHER AGENCY
150418259375 4-18 20:23 1100 CAHOON RD 16 ROAD OBSTRUCTION
150418259383 4-18 20:22 FT CAROLINE RD AND N ST JOHNS BLUFF RD 1050 TRAFFIC STOP
150418259382 4-18 20:21 7000 KNOTTS DR 63 DISPUTE
150418259380 4-18 20:21 4000 TAR KILN RD 37 UNVERIFIED 911 CALL
150418259376 4-18 20:19 N MYRTLE AVE AND MARTIN LUTHER KING JR PKWY 91 TRAFFIC LIGHT/RR CROSSING MALFUNCTION
150418259377 4-18 20:17 8700 LEM TURNER RD 37 UNVERIFIED 911 CALL
150418259322 4-18 20:17 1700 DOT ST 27 MENTALLY ILL PERSON
150418259368 4-18 20:16 BLANDING BLVD AND YOUNGERMAN CIR 0 13 ARMED SUSPICIOUS PERSON
150418259374 4-18 20:15 N DAVIS ST AND W UNION ST 1050 TRAFFIC STOP
150418259360 4-18 20:13 9300 BAYMEADOWS RD 2 63 DISPUTE INVOLVING ALCOHOL
150418259370 4-18 20:13 DUNN/WINNGATE 96 ASSIST MOTORIST
150418259363 4-18 20:13 E KENWOOD DR AND WILSON BLVD 13 SUSPICIOUS PERSON
150418259350 4-18 20:12 8100 WESTSIDE INDUSTRIAL DR 32 BURGLAR ALARM - AUDIBLE
150418259369 4-18 20:12 900 MONUMENT RD 1050 TRAFFIC STOP
150418259366 4-18 20:12 100 S ARLINGTON RD 32 BURGLAR ALARM - AUDIBLE
150418259355 4-18 20:11 7900 MERRILL RD 63 DISPUTE
150418259361 4-18 20:11 1400 E 26TH ST 8 27 MISSING MENTALLY ILL
150418259358 4-18 20:10 2900 JUSTINA RD 63 DISPUTE
150418259356 4-18 20:09 4900 SUMNER CREEK DR 32 BURGLAR ALARM - AUDIBLE
150418259341 4-18 20:09 3200 W 1ST ST 37 UNVERIFIED 911 CALL
150418259269 4-18 20:09 1200 KINGS RD 28 DELIVER MESSAGE
150418259357 4-18 20:08 N I295 EXPWY AND BAYMEADOWS RD 4 AUTO CRASH
150418259352 4-18 20:06 3300 DILLON ST 17 PERSON DOWN OR SICK
150418259348 4-18 20:05 7900 PHILLIPS HWY 32 BURGLAR ALARM - AUDIBLE
150418259332 4-18 20:02 7200 MERRILL RD 63 DISPUTE
150418259346 4-18 20:01 WILLOW BRANCH AVE AND DELLWOOD AVE 56 JUVENILE COMPLAINT
150418259343 4-18 19:59 11800 CAMDEN RD 32 BURGLAR ALARM - AUDIBLE
150418259345 4-18 19:59 OLD ST AUGUSTINE RD AND HARTLEY RD 1050 TRAFFIC STOP
150418259344 4-18 19:59 100 KING ST 13 SUSPICIOUS PERSON
150418259337 4-18 19:59 14000 BEACH BLVD 32 BURGLAR ALARM - AUDIBLE
150418259333 4-18 19:56 600 OAKS HOLLOW CT 25 FIRE/EXPLOSION
150418259331 4-18 19:56 9300 E MAIDSTONE MILL DR 64 NOISE COMPLAINT
150418259320 4-18 19:55 9500 BAYMEADOWS RD 63 DISPUTE
150418259336 4-18 19:55 ARLINGTON EXPWY AND SOUTHSIDE CONNECTOR BLVD 4 AUTO CRASH
150418259330 4-18 19:53 8500 103RD ST 63 DISPUTE
150418259329 4-18 19:53 1700 LEON RD 1066 CANCEL
150418259275 4-18 19:52 4500 MILSTEAD RD 32 BURGLAR ALARM - AUDIBLE
150418259327 4-18 19:52 HOOD LANDING RD AND JULINGTON CREEK RD 12 RECKLESS DRIVER
150418259323 4-18 19:51 200 E 27TH ST 2 63 DISPUTE INVOLVING ALCOHOL
150418259325 4-18 19:51 7600 103RD ST 1050 TRAFFIC STOP
150418259321 4-18 19:49 12000 PHILLIPS HWY 1050 TRAFFIC STOP
150418259319 4-18 19:49 2300 S ST JOHNS BLUFF RD 22 DOMESTIC DISTURBANCE
150418259315 4-18 19:48 1500 INGLESIDE AVE 64 NOISE COMPLAINT
150418259313 4-18 19:46 2700 CHARBRAY DR 64 NOISE COMPLAINT
150418259276 4-18 19:46 7500 BEACH BLVD 49 REPORT TO HOSPITAL
150418259310 4-18 19:45 2900 JUSTINA RD 63 DISPUTE
150418259312 4-18 19:44 6700 103RD ST 4 AUTO CRASH
150418259311 4-18 19:44 1500 MELSON AVE 32 BURGLAR ALARM - AUDIBLE
150418259289 4-18 19:44 1000 STARK ST 32 BURGLAR ALARM - AUDIBLE
150418259306 4-18 19:43 4400 PHILLIPS HWY 2 63 DISPUTE INVOLVING ALCOHOL
150418259295 4-18 19:42 1500 W 23RD ST 32 BURGLAR ALARM - AUDIBLE
150418259301 4-18 19:41 CHAPMAN DR AND N FROST ST 64 NOISE COMPLAINT
150418259292 4-18 19:41 3500 CLYDE DR 63 DISPUTE
150418259258 4-18 19:40 7800 SPRINGTIME LN 76 ASSIST OTHER AGENCY
150418259280 4-18 19:38 7900 DEKLE AVE 32 BURGLAR ALARM - AUDIBLE
150418259304 4-18 19:38 2100 HUGH EDWARDS DR 63 DISPUTE
150418259302 4-18 19:37 100 E UNION ST 88J ASSAULT JUST OCCURRED
150418259296 4-18 19:37 7000 N KING ARTHUR RD 2 22 DOMESTIC DISTURBANCE
150418259300 4-18 19:35 2200 BRIDO RD 0 61 FIGHT W/WEAPON
150418259297 4-18 19:34 1300 BROOKWOOD FOREST BLVD 1050 TRAFFIC STOP
150418259283 4-18 19:31 WALNUT ST AND E 1ST ST 4 53 TRAFFIC CRASH PERSON INJURED
150418259291 4-18 19:31 300 SPRING FOREST AVE 2 63 DISPUTE INVOLVING ALCOHOL
150418259240 4-18 19:31 4800 MANCHESTER RD 63 DISPUTE
150418259285 4-18 19:30 7600 BROCKHURST DR 1066 CANCEL
150418259286 4-18 19:28 CENTURY ST AND ATLANTIC BLVD 1050 TRAFFIC STOP
150418259284 4-18 19:27 7600 DEVOLA TRL 56 JUVENILE COMPLAINT
150418259277 4-18 19:26 5000 SOUTEL DR 37 UNVERIFIED 911 CALL
150418259268 4-18 19:26 BAYMEADOWS RD AND PHILLIPS HWY 1066 CANCEL
150418259281 4-18 19:26 9700 CROSSHILL BLVD 3 HIT AND RUN CRASH
150418259247 4-18 19:25 3700 S UNIVERSITY BLVD 54 ILLEGALLY PARKED CAR
150418259270 4-18 19:25 4900 TENNESSEE ST 63 DISPUTE
150418259279 4-18 19:24 BARTRAM VILLAGE DR AND BARTRAM VILLAGE LN 54 ILLEGALLY PARKED CAR
150418259238 4-18 19:24 8600 S OLD KINGS RD 4 AUTO CRASH
150418259257 4-18 19:24 4400 VINTON RD 64 NOISE COMPLAINT
150418259267 4-18 19:23 4400 W MONCRIEF RD 27 MENTALLY ILL PERSON
150418259274 4-18 19:22 WATER ST AND W INDEPENDENT DR 61 FIGHT
150418259265 4-18 19:18 2000 MAYPORT RD 79 OBSCENE OR THREATENING COMM
150418259264 4-18 19:17 1700 BOULEVARD 32 BURGLAR ALARM - AUDIBLE
150418259226 4-18 19:16 3400 FLOWER GARDEN LN 21R BURGLARY RESIDENCE
150418259261 4-18 19:15 13700 LANIER RD 63 DISPUTE
150418259263 4-18 19:14 1900 JAMMES RD 1050 TRAFFIC STOP
150418259250 4-18 19:13 1600 HAMMOCK RD 63 DISPUTE
150418259262 4-18 19:13 5100 BIG ISLAND DRIVE 88 ASSAULT
150418259251 4-18 19:13 800 RIVERSIDE AVE 4 AUTO CRASH
150418259259 4-18 19:12 9100 ATLANTIC BLVD 4 AUTO CRASH
150418259254 4-18 19:12 8800 MONCRIEF-DINSMORE RD 32 BURGLAR ALARM - AUDIBLE
150418259260 4-18 19:12 7000 ROOSEVELT BLVD 1050 TRAFFIC STOP
150418259256 4-18 19:12 4000 RODBY DR 37 UNVERIFIED 911 CALL
150418259197 4-18 19:10 S LANE AVE AND NORMANDY BLVD 54 ILLEGALLY PARKED CAR
150418259252 4-18 19:09 N I95 EXPWY AND SAN MARCO BLVD 4 AUTO CRASH
150418259246 4-18 19:06 W MONROE ST AND N HOGAN ST 60 SUICIDE OR ATTEMPT
150418259231 4-18 19:06 W 8TH ST AND S I95 EXPWY 12 RECKLESS DRIVER
150418259242 4-18 19:04 CHRISTOPHER ROBIN DR AND CHRIS CT 64 NOISE COMPLAINT
150418259244 4-18 19:03 7200 BLANDING BLVD 16 ROAD OBSTRUCTION
150418259243 4-18 19:03 1700 W 15TH ST 1050 TRAFFIC STOP
150418259205 4-18 19:03 3800 MISSION DR 63 DISPUTE
150418259204 4-18 19:02 8200 W GATE PKWY 63 DISPUTE
150418259236 4-18 19:02 6200 IRONSIDE DR 32 BURGLAR ALARM - AUDIBLE
150418259233 4-18 19:01 1000 HOOD AVE 3388 DISCHARGING FIREARM AT PERSON
150418259235 4-18 19:01 S I295 EXPWY AND BLANDING BLVD 96 ASSIST MOTORIST
150418259198 4-18 19:01 W 59TH ST AND ELWOOD AVE 6388 DISPUTE WITH ASSAULT
150418259229 4-18 19:00 1700 LEON RD 64 NOISE COMPLAINT
150418259223 4-18 19:00 800 FRANKLIN ST 63 DISPUTE
150418259218 4-18 18:59 1500 INGLESIDE AVE 64 NOISE COMPLAINT
150418259189 4-18 18:59 3800 PERRY ST 4 AUTO CRASH
150418259214 4-18 18:59 PRITCHARD RD AND S I295 EXPWY 12 RECKLESS DRIVER
150418259228 4-18 18:58 4100 N HIDDEN BRANCH DR 3 HIT AND RUN CRASH
150418259225 4-18 18:57 2000 DUNSFORD TER 33 DISCHARGING OF FIREARM
150418259212 4-18 18:57 FOREST ST AND PARK ST 13 SUSPICIOUS PERSON
150418259220 4-18 18:56 8900 WESTERN WAY 37 UNVERIFIED 911 CALL
150418259219 4-18 18:55 S I295 EXPWY AND 103RD ST 4 AUTO CRASH
150418259216 4-18 18:55 8000 ARLINGTON EXPWY 14R VANDALISM RESIDENCE
150418259176 4-18 18:55 11000 NURSERYFIELDS DR 64 NOISE COMPLAINT
150418259217 4-18 18:53 ROOSEVELT BLVD AND S I295 EXPWY 12 RECKLESS DRIVER
150418259153 4-18 18:51 1800 WHITNER ST 63 DISPUTE
150418259215 4-18 18:51 MORSE AVE AND JAMMES RD 1050 TRAFFIC STOP
150418259193 4-18 18:51 1200 N LAURA ST 2 63 DISPUTE INVOLVING ALCOHOL
150418259186 4-18 18:49 BRENTWOOD AVE AND LINWOOD AVE 13 SUSPICIOUS PERSON
150418259206 4-18 18:49 ARGYLE FOREST BLVD AND BLANDING BLVD 13 SUSPICIOUS PERSON
150418259149 4-18 18:48 2600 CALADIUM RD 63 DISPUTE
150418259211 4-18 18:48 100 S DAMES POINT BRG 16 ROAD OBSTRUCTION
150418259154 4-18 18:48 13800 OLD ST AUGUSTINE RD 2 DRUNK PERSON
150418259172 4-18 18:47 BAYMEADOWS RD AND S I295 EXPWY 64 NOISE COMPLAINT
150418259044 4-18 18:47 100 E 19TH ST 2 63 DISPUTE INVOLVING ALCOHOL
150418259207 4-18 18:46 HODGES BLVD AND CHETS CREEK BLVD 96 ASSIST MOTORIST
150418259200 4-18 18:45 3500 STILLMAN ST 37 UNVERIFIED 911 CALL
150418259202 4-18 18:44 9300 103RD ST 63 DISPUTE
150418259092 4-18 18:44 8700 ARLINGTON EXPWY 32 BURGLAR ALARM - AUDIBLE
150418259203 4-18 18:44 800 NAUTICAL DR 1050 TRAFFIC STOP
150418259201 4-18 18:43 6900 MORSE AVE 1050 TRAFFIC STOP
150418259196 4-18 18:42 W 15TH ST AND PEARCE ST 23I ROBBERY INDIVIDUAL
150418259184 4-18 18:41 200 E AUBURN OAKS RD 63 DISPUTE
150418259137 4-18 18:41 8400 ROCKLAND DR 63 DISPUTE
150418259195 4-18 18:40 7800 PAUL JONES DR 27 MENTALLY ILL PERSON
150418259166 4-18 18:40 11200 HARTS RD 22 DOMESTIC DISTURBANCE
150418259188 4-18 18:40 S I295 EXPWY AND DUNN AVE 12 RECKLESS DRIVER
150418259192 4-18 18:39 MARTIN LUTHER KING JR PKWY AND N I95 EXPWY 4 53 TRAFFIC CRASH PERSON INJURED
150418259112 4-18 18:39 3200 ACE LN 1066 CANCEL
150418259079 4-18 18:38 2700 CHARBRAY DR 64 NOISE COMPLAINT
150418259114 4-18 18:38 7200 DEERFOOT POINT CIR 76 ASSIST OTHER AGENCY
150418259175 4-18 18:37 100 N BUCKMAN BRG 12 RECKLESS DRIVER
150418259183 4-18 18:37 8600 SUSIE ST 13 SUSPICIOUS PERSON
150418259170 4-18 18:37 900 BERT RD 6388 DISPUTE WITH ASSAULT
150418259180 4-18 18:37 11200 KITTRELL PINES TER 76 ASSIST OTHER AGENCY
150418259185 4-18 18:36 J TURNER BUTLER BLVD AND S KERNAN BLVD 1050 TRAFFIC STOP
150418259181 4-18 18:36 6400 LOBELIA ST 4 AUTO CRASH
150418259162 4-18 18:36 2600 VAN GUNDY RD 3 HIT AND RUN CRASH
150418259140 4-18 18:35 9900 OLD BAYMEADOWS RD 63 DISPUTE
150418259145 4-18 18:35 5600 AVENUE B 21B BURGLARY BUSINESS
150418259179 4-18 18:34 CEDAR ST AND HENDRICKS AVE 4 AUTO CRASH
150418259167 4-18 18:31 100 N FULLER WARREN BRG 16 ROAD OBSTRUCTION
150418259133 4-18 18:31 11500 N KINGS RIDGE CT 32 BURGLAR ALARM - AUDIBLE
150418259174 4-18 18:30 PARK ST AND KING ST 91 TRAFFIC LIGHT/RR CROSSING MALFUNCTION
150418259173 4-18 18:30 JTB / HODGES 38 TRAFFIC ASSIGNMENT
150418259169 4-18 18:29 N I95 EXPWY AND GOLFAIR BLVD 4 AUTO CRASH
150418259168 4-18 18:29 N I95 EXPWY AND LEM TURNER RD 4 53 TRAFFIC CRASH PERSON INJURED
150418259115 4-18 18:27 7000 PRITCHARD RD 4 AUTO CRASH
150418259164 4-18 18:26 3700 N MAIN ST 63 DISPUTE
150418259160 4-18 18:25 N I295 EXPWY AND MERRILL RD 4 AUTO CRASH
150418259165 4-18 18:25 3500 SMITHFIELD ST 88 ASSAULT
150418259158 4-18 18:25 7800 ATLANTIC BLVD 32 BURGLAR ALARM - AUDIBLE
150418259078 4-18 18:23 1000 GOLFAIR BLVD 32 BURGLAR ALARM - AUDIBLE
150418259161 4-18 18:23 E I10 EXPWY AND S MC DUFF AVE 16 ROAD OBSTRUCTION
150418259135 4-18 18:22 2000 EVERGREEN AVE 63 DISPUTE
150418259159 4-18 18:22 BLANDING BLVD AND PARK ST 4 AUTO CRASH
150418259143 4-18 18:21 1700 W BEAVER ST 1066 CANCEL
150418259141 4-18 18:20 N I295 EXPWY AND WILSON BLVD 12 RECKLESS DRIVER
150418259157 4-18 18:20 12800 JORDAN BLAIR CT 76 ASSIST OTHER AGENCY
150418259156 4-18 18:19 6000 TROUT RIVER BLVD 13 SUSPICIOUS PERSON
150418259146 4-18 18:19 7700 S OLD KINGS RD 63 DISPUTE
150418259147 4-18 18:18 11800 E LEAFDALE CIR 32 BURGLAR ALARM - AUDIBLE
150418259136 4-18 18:18 900 PECAN PARK RD 1066 CANCEL
150418259150 4-18 18:18 6700 ALARO RD 76 ASSIST OTHER AGENCY
150418259142 4-18 18:17 16100 N MAIN ST 32 BURGLAR ALARM - AUDIBLE
150418259148 4-18 18:15 MARTIN LUTHER KING JR PKWY AND N MYRTLE AVE 91 TRAFFIC LIGHT/RR CROSSING MALFUNCTION
150418259144 4-18 18:15 4500 BRENTWOOD AVE 32 BURGLAR ALARM - AUDIBLE
150418259125 4-18 18:15 12400 E TROPIC DR 13 SUSPICIOUS PERSON
150418259126 4-18 18:15 100 N BUCKMAN BRG 12 RECKLESS DRIVER
150418259127 4-18 18:13 6200 ALEXON DR 13 SUSPICIOUS PERSON
150418259138 4-18 18:13 100 KING ST 63 DISPUTE
150418259124 4-18 18:11 11400 SAN JOSE BLVD 96 ASSIST MOTORIST
150418259130 4-18 18:10 1500 E 28TH ST 37 UNVERIFIED 911 CALL
150418259134 4-18 18:10 CAHOON RD AND MARINER ST 60 SUICIDE OR ATTEMPT
150418259072 4-18 18:09 N I95 EXPWY AND BOWDEN RD 96 ASSIST MOTORIST
150418259120 4-18 18:09 800 CHAPMAN DR 64 NOISE COMPLAINT
150418259131 4-18 18:08 N I295 EXPWY AND S ST JOHNS BLUFF RD 12 RECKLESS DRIVER
150418259129 4-18 18:08 3000 FAYE RD 32 BURGLAR ALARM - AUDIBLE
150418259085 4-18 18:05 3300 MONCRIEF RD 32 BURGLAR ALARM - AUDIBLE
150418259116 4-18 18:04 7800 PAUL JONES DR 8 MISSING PERSON
150418259121 4-18 18:04 10400 SANDLER RD 13 SUSPICIOUS PERSON
150418259117 4-18 18:04 7200 SILVER LAKE TER 19 ANIMAL INVESTIGATION
150418259091 4-18 18:04 9400 IRVINE ST 1066 CANCEL
150418259075 4-18 18:04 KING ST AND POST ST 91 TRAFFIC LIGHT/RR CROSSING MALFUNCTION
150418259122 4-18 18:03 300 BUSCH DR 32X SILENT ALARM (ROBBERY PANIC OR AWARE)
150418259101 4-18 18:02 13500 BARTRAM PARK BLVD 32 BURGLAR ALARM - AUDIBLE
150418259118 4-18 18:02 5500 LA MOYA AVE 32 BURGLAR ALARM - AUDIBLE
150418259105 4-18 18:01 6300 BARTHOLF AVE 2 63 DISPUTE INVOLVING ALCOHOL
150418259053 4-18 17:59 3400 NORTH RIDE DR 22 DOMESTIC DISTURBANCE
150418259104 4-18 17:59 100 CHELSEA ST 63 DISPUTE
150418259103 4-18 17:58 2200 S BARRY DR 32 BURGLAR ALARM - AUDIBLE
150418259099 4-18 17:58 7300 E DOSTIE DR 32 BURGLAR ALARM - AUDIBLE
150418259069 4-18 17:58 1400 W 23RD ST 0 63 ARMED DISPUTE
150418259056 4-18 17:57 1200 HART ST 80 PROSTITUTION (ONLY)
150418259082 4-18 17:57 2300 W 11TH ST 32 BURGLAR ALARM - AUDIBLE
150418259110 4-18 17:57 2600 S ST JOHNS BLUFF RD 1066 CANCEL
150418259087 4-18 17:57 200 S EDGEWOOD AVE 63 DISPUTE
150418259111 4-18 17:57 J T B/SS 4 AUTO CRASH
150418259109 4-18 17:57 11300 CLAUDINE CT 32 BURGLAR ALARM - AUDIBLE
150418259106 4-18 17:56 MORTON ST AND POWERS AVE 3 53 HIT AND RUN CRASH W/FIRE
150418259108 4-18 17:56 N BROAD ST AND W UNION ST 4 53 TRAFFIC CRASH PERSON INJURED
150418259097 4-18 17:55 S I95 EXPWY 13 SUSPICIOUS PERSON
150418259107 4-18 17:54 SOUTHSIDE BLVD AND HOGAN RD 4 AUTO CRASH
150418259102 4-18 17:53 12100 LEM TURNER RD 9 THEFT
150418259098 4-18 17:53 9500 ARLINGTON EXPWY 9T THEFT (TELESERVE)
150418259073 4-18 17:53 S I95 EXPWY AND DUNN AVE 96 ASSIST MOTORIST
150418259059 4-18 17:51 2500 WISTERIA ST 56 JUVENILE COMPLAINT
150418259083 4-18 17:49 2900 SELMA ST 32 BURGLAR ALARM - AUDIBLE
150418259071 4-18 17:49 700 WEST ST 32 BURGLAR ALARM - AUDIBLE
150418259090 4-18 17:48 1700 HODGES BLVD 73 DRUG INVESTIGATION
150418259045 4-18 17:48 700 PARK ST 19 ANIMAL INVESTIGATION
150418259066 4-18 17:48 2100 OAK ST 32 BURGLAR ALARM - AUDIBLE
150418259068 4-18 17:48 13400 YELLOW BLUFF RD 63 DISPUTE
150418259088 4-18 17:48 6400 ROLLING TREE ST 64 NOISE COMPLAINT
150418259084 4-18 17:47 8300 ROCKY CREEK DR 32 BURGLAR ALARM - AUDIBLE
150418259094 4-18 17:47 2300 EDWARDS AVE 32 BURGLAR ALARM - AUDIBLE
150418259095 4-18 17:47 8800 MONCRIEF-DINSMORE RD 32 BURGLAR ALARM - AUDIBLE
150418259081 4-18 17:47 8300 BAYMEADOWS RD 32 BURGLAR ALARM - AUDIBLE
150418259063 4-18 17:46 1100 N MYRTLE AVE 32 BURGLAR ALARM - AUDIBLE
150418259077 4-18 17:45 S CHAFFEE RD AND CRYSTAL SPRINGS RD 4 AUTO CRASH
150418259089 4-18 17:45 2100 HUGH EDWARDS DR 21R BURGLARY RESIDENCE
150418259070 4-18 17:44 S I95 EXPWY AND BAYMEADOWS RD 13 SUSPICIOUS PERSON
150418259019 4-18 17:44 5500 COLLINS RD 6388 DISPUTE WITH ASSAULT
150418258960 4-18 17:44 10900 BEACH BLVD 63 DISPUTE
150418259080 4-18 17:43 2200 W UNIVERSITY BLVD 32 BURGLAR ALARM - AUDIBLE
150418259060 4-18 17:42 7500 E BOB-O-LINK RD 22 DOMESTIC DISTURBANCE
150418259076 4-18 17:42 13800 HERONS LANDING WAY 32 BURGLAR ALARM - AUDIBLE
150418258998 4-18 17:41 5600 COLLINS RD 63 DISPUTE
150418259074 4-18 17:40 6800 NORMANDY 5582 HOLDING ONE FOR SHOPLIFTING
150418259051 4-18 17:39 COLLINS RD AND S OLD MIDDLEBURG RD 56 JUVENILE COMPLAINT
150418259042 4-18 17:39 KINGS RD AND N MYRTLE AVE 4 AUTO CRASH
150418259037 4-18 17:36 S I295 EXPWY AND MONUMENT RD 63 DISPUTE
150418259057 4-18 17:35 4400 W MONCRIEF RD 63 DISPUTE
150418259007 4-18 17:35 5300 MONCRIEF RD 63 DISPUTE
150418259061 4-18 17:34 LENOX AVE AND CASSAT AVE 1050 TRAFFIC STOP
150418259032 4-18 17:33 STOCKTON ST AND RIVERSIDE AVE 63 DISPUTE
150418259049 4-18 17:33 3300 W BEAVER ST 32 BURGLAR ALARM - AUDIBLE
150418259055 4-18 17:33 500 S MC DUFF AVE 32 BURGLAR ALARM - AUDIBLE
150418259012 4-18 17:30 8800 BEACH BLVD 9 THEFT
150418259006 4-18 17:29 6800 SOUTHPOINT PKWY 32 BURGLAR ALARM - AUDIBLE
150418259048 4-18 17:29 10200 RIVER MARSH DR 21CT BURGLARY CONVEYANCE TELESERVE
150418259035 4-18 17:28 6800 WILSON BLVD 63 DISPUTE
150418259047 4-18 17:28 4300 COLONIAL AVE 32 BURGLAR ALARM - AUDIBLE
150418259039 4-18 17:27 400 AGMAC AVE 32 BURGLAR ALARM - AUDIBLE
150418259033 4-18 17:25 7900 DWYER DR 32 BURGLAR ALARM - AUDIBLE
150418259029 4-18 17:23 ATLANTIC BLVD AND ART MUSEUM DR 3 HIT AND RUN CRASH
150418259015 4-18 17:22 9800 HUTCHINSON PARK DR 5582 HOLDING ONE FOR SHOPLIFTING
150418259036 4-18 17:21 7500 ARLINGTON EXPWY 32 BURGLAR ALARM - AUDIBLE
150418258996 4-18 17:21 4800 JONES RD 63 DISPUTE
150418259013 4-18 17:20 1000 N LANE AVE 9DO THEFT-DRIVE OFF
150418259025 4-18 17:20 6700 STUART AVE 32 BURGLAR ALARM - AUDIBLE
150418259009 4-18 17:19 3000 W EDGEWOOD AVE 9J THEFT JUST OCCURRED
150418259028 4-18 17:18 N NEWNAN ST AND E UNION ST 16 ROAD OBSTRUCTION
150418259030 4-18 17:18 CASSAT AVE AND LENOX AVE 61 FIGHT
150418259026 4-18 17:17 300 E BAY ST 32 BURGLAR ALARM - AUDIBLE
150418259018 4-18 17:17 3200 HODGES BLVD 2 DRUNK PERSON
150418259016 4-18 17:16 6000 HOLLY BAY DR 22 DOMESTIC DISTURBANCE
150418259023 4-18 17:16 15500 W SHARK RD 60 SUICIDE OR ATTEMPT
150418259024 4-18 17:16 COMMONWEALTH AVE AND GARFIELD ST 88 ASSAULT
150418259004 4-18 17:15 3200 SOUTHSIDE BLVD 63 DISPUTE
150418259008 4-18 17:15 8800 NORMANDY BLVD 32 BURGLAR ALARM - AUDIBLE
150418259010 4-18 17:15 900 N ARLINGTON RD 63 DISPUTE
150418259021 4-18 17:14 1300 FLORIDA AVE 9 THEFT
150418259020 4-18 17:14 S I95 EXPWY AND BAYMEADOWS RD 13 SUSPICIOUS PERSON
150418259014 4-18 17:13 4200 PHILLIPS HWY 12 RECKLESS DRIVER
150418259011 4-18 17:12 ARLINGTON EXPWY AND UNIVERSITY BLVD 4 AUTO CRASH
150418258959 4-18 17:12 5000 NORMANDY BLVD 2 63 DISPUTE INVOLVING ALCOHOL
150418259000 4-18 17:11 TIMUQUANA RD AND ROOSEVELT BLVD 1 IMPAIRED/RECKLESS DRIVER
150418258999 4-18 17:08 1000 AIRPORT RD 63 DISPUTE
150418258949 4-18 17:08 6000 YOUNGERMAN CIR 13 SUSPICIOUS PERSON
150418259002 4-18 17:06 2800 PHILLIPS HWY 4 AUTO CRASH
150418258967 4-18 17:06 700 SAN MARCO BLVD 50 FOUND/ABANDONED PROPERTY
150418258984 4-18 17:05 NORWOOD AVE AND ASHFORD ST 63 DISPUTE
150418259001 4-18 17:05 1100 W 22ND ST 32X SILENT ALARM (ROBBERY PANIC OR AWARE)
150418258927 4-18 17:03 5800 WINDERMERE DR 27 MENTALLY ILL PERSON
150418258995 4-18 17:02 6300 ROOSEVELT BLVD 32 BURGLAR ALARM - AUDIBLE
150418258975 4-18 17:01 8600 SPRINGTREE RD 32 BURGLAR ALARM - AUDIBLE
150418258987 4-18 17:01 PRUDENTIAL DR AND SAN MARCO BLVD 16 ROAD OBSTRUCTION
150418258993 4-18 17:00 J TURNER BUTLER BLVD AND SOUTHSIDE BLVD 12 RECKLESS DRIVER
150418258992 4-18 17:00 200 S US 301 HWY 4 AUTO CRASH